Preview of NWS' New Version of Forecast
This preview is not operational and should not be used for support decisions.
Latest weather observations around

City Of Colorado Springs Municipal Airport (KCOS)

Using English Units (Switch to International System of Units)
Date/ Time (MDT) Wind (mph) Vis. (mi) Weather Sky Cond. Temp (°F) Rel. Humidity Wind Chill (°F) Heat Index (°F) Pressure Precip. (in)
Air Dwpt 6 hour Altimeter (inHg) Sea level (inHg) 1 hr 3 hr 6 hr
Max Min
Jun 18 23:54 ENE 3 10 Partly Cloudy FEW070 SCT130 SCT250 52 48     86%     30.1 29.92     0
Jun 18 22:54 N 9 10 Partly Cloudy FEW070 SCT250 53 47     80%     30.12 29.96      
Jun 18 21:54 WNW 9 10 Partly Cloudy FEW070 SCT250 53 49     86%     30.14 29.98 0    
Jun 18 20:54 NNW 9 7 Rain FEW020 BKN060 OVC080 55 51     86%     30.13 29.97 0 0  
Jun 18 19:54 N 7 10 Light Rain BKN070 BKN100 BKN170 57 53     87%     30.1 29.93 0    
Jun 18 18:54 W 8 10 Mostly Cloudy FEW070 SCT090 BKN150 BKN250 55 52     89%     30.09 29.95 0    
Jun 18 18:19   10 Mostly Cloudy SCT060 BKN090 BKN120 55 48     77%     30.09   0    
Jun 18 18:03   10 Light Rain SCT050 BKN070 BKN110 56 48     75%     30.06   0    
Jun 18 17:54   10 Thunderstorms and Rain SCT050 BKN070 BKN110 56 49     77%     30.09 29.95 0   0
Jun 18 17:46 SE 3 7 Thunderstorms and Rain SCT040 BKN070 BKN110 56 48     75%     30.11   0    
Jun 18 17:38 WNW 14 2 Thunderstorms and Heavy Rain SCT050 BKN070 OVC110 58 53     84%     30.14   0    
Jun 18 17:27 WNW 7 7 Thunderstorms and Rain FEW050 BKN070 OVC110 58 53     84%     30.12   0    
Jun 18 17:18 S 7 10 Light Rain FEW050 BKN080 OVC110 59 52     78%     30.1   0    
Jun 18 16:54 NE 5 10 Mostly Cloudy SCT080 BKN120 BKN230 59 53     81%     30.08 29.92 0    
Jun 18 16:22 Calm 10 Mostly Cloudy FEW050 SCT080 BKN130 BKN230 58 54     87%     30.08   0    
Jun 18 16:00 NW 6 10 Mostly Cloudy SCT050 BKN080 BKN150 BKN230 58 54     87%     30.1        
Jun 18 15:54 NW 6 10 Mostly Cloudy SCT050 BKN090 BKN150 BKN230 58 54     87%     30.1 29.94 0    
Jun 18 15:20 Calm 10 Mostly Cloudy FEW050 SCT090 BKN150 BKN230 60 52     75%     30.09   0    
Jun 18 14:54 NE 8 10 Light Rain FEW032 BKN050 BKN150 BKN230 59 53     81%     30.1 29.92 0 0  
Jun 18 14:42 NE 11 10 Mostly Cloudy SCT032 BKN050 BKN150 59 52     78%     30.1   0    
Jun 18 13:54   10 Thunderstorms BKN036 OVC090 62 47     58%     30.11 29.93      
Jun 18 12:54 3 10 Mostly Cloudy SCT027 BKN090 BKN230 66 51     59%     30.12 29.92      
Jun 18 12:42 S 5 10 Mostly Cloudy SCT027 BKN090 BKN230 65 52     63%     30.12        
Jun 18 11:54 S 9 10 Mostly Cloudy SCT027 BKN090 BKN230 66 52     61%     30.13 29.93      
Jun 18 10:54 SSE 5 10 Mostly Cloudy BKN028 BKN090 BKN230 63 51     65%     30.15 29.95      
Jun 18 09:54 SSE 9 10 Mostly Cloudy BKN030 BKN090 BKN230 61 50     67%     30.15 29.96      
Jun 18 08:54 SE 7 10 Mostly Cloudy SCT100 BKN230 60 50     69%     30.14 29.96      
Jun 18 07:54 SE 3 10 Mostly Cloudy BKN110 BKN250 58 51     78%     30.13 29.94      
Jun 18 06:54 Calm 9 Mostly Cloudy FEW080 BKN250 57 50     77%     30.12 29.93      
Jun 18 05:54 Calm 9 Cloudy FEW080 OVC250 53 49     86%     30.13 29.94      
Jun 18 04:54 N 8 10 Cloudy SCT100 OVC250 55 49     80%     30.13 29.93      
Jun 18 03:54 N 9 10 Cloudy BKN090 OVC250 55 47     74%     30.13 29.94      
Jun 18 02:54 NW 10 10 Mostly Cloudy BKN085 58 46     65%     30.13 29.93      
Jun 18 01:54 NNW 8 10 Mostly Cloudy SCT095 BKN250 55 47     74%     30.13 29.93      
Jun 18 00:54 WNW 8 10 Mostly Cloudy SCT100 BKN250 57 48     72%     30.13 29.93      
Jun 17 23:54 N 9 10 Mostly Cloudy BKN110 BKN250 57 48     72%     30.17 29.96      
Jun 17 22:54 NNE 10 10 Mostly Cloudy FEW040 SCT100 BKN250 58 47     67%     30.17 29.97      
Jun 17 21:54 ENE 7 10 Cloudy FEW075 BKN090 OVC120 60 49     67%     30.17 29.96      
Jun 17 20:54 Calm 10 Mostly Cloudy BKN110 BKN230 59 52     78%     30.13 29.94      
Jun 17 19:54 E 7 10 Mostly Cloudy BKN070 BKN150 BKN230 62 50     65%     30.11 29.91      
Jun 17 18:54   10 Mostly Cloudy SCT070 SCT150 BKN230 65 49     56%     30.11 29.91      
Jun 17 17:54 NW 10 10 Mostly Cloudy FEW070 BKN150 BKN250 67 44     44%     30.08 29.9     0
Jun 17 16:54 N 9 10 Mostly Cloudy FEW100 BKN140 BKN250 69 49     49%     30.07 29.89 0    
Jun 17 16:07 NNE 8 10 Mostly Cloudy FEW070 BKN120 BKN170 64 51     63%     30.11        
Jun 17 15:54 N 8 10 Mostly Cloudy FEW060 SCT110 BKN160 64 51     63%     30.11 29.95 0    
Jun 17 15:08 NW 13 10 Light Rain SCT060 BKN100 66 51     59%     30.11   0    
Jun 17 14:54 WNW 11 10 Mostly Cloudy BKN080 66 51     59%     30.11 29.94   0  
Jun 17 13:54 SW 5 10 Mostly Cloudy SCT080 BKN110 69 52     54%     30.12 29.93 0    
Jun 17 13:24 WSW 5 10 Light Rain SCT050 BKN080 66 51     59%     30.12   0    
Jun 17 12:54 SE 6 10 Light Rain SCT050 BKN080 67 49     52%     30.12 29.93 0    
Jun 17 12:26 ESE 6 10 Mostly Cloudy SCT050 BKN080 68 48     49%     30.12        
Jun 17 11:54 ESE 6 10 Mostly Cloudy SCT070 BKN120 BKN200 69 48     47%     30.13 29.94      
Jun 17 10:54 E 10 10 Mostly Cloudy SCT075 BKN120 67 50     55%     30.14 29.95      
Jun 17 09:54 NNE 6 10 Mostly Cloudy BKN100 65 50     58%     30.14 29.96      
Jun 17 08:54 N 6 10 Mostly Cloudy BKN100 63 51     65%     30.14 29.96      
Jun 17 07:54 Calm 10 Mostly Cloudy BKN110 BKN160 61 49     64%     30.13 29.95      
Jun 17 06:54 N 6 10 Mostly Cloudy FEW110 SCT150 BKN250 56 50     80%     30.12 29.94      
Jun 17 05:54 N 6 10 Mostly Cloudy FEW140 BKN250 50 45     83%     30.11 29.96      
Jun 17 04:54 NNE 5 10 Partly Cloudy FEW120 SCT250 49 44     83% 47   30.1 29.96      
Jun 17 03:54 N 5 10 Partly Cloudy FEW100 SCT250 50 44     80%     30.1 29.9      
Jun 17 02:54 NNE 6 10 Partly Cloudy FEW100 SCT250 50 44     80%     30.1 29.89      
Jun 17 01:54 N 6 10 Partly Cloudy FEW100 SCT250 51 45     79%     30.11 29.9      
Jun 17 00:54 NNW 6 10 Mostly Cloudy SCT100 BKN250 54 46     74%     30.12 29.93      
Jun 16 23:54 NNE 8 10 Clear   53 46     77%     30.13 29.93     0
Jun 16 22:54 NNE 8 10 Mostly Cloudy FEW110 SCT180 BKN250 54 47     77%     30.13 29.93      
Jun 16 21:54 N 8 10 Mostly Cloudy SCT180 BKN250 55 47     74%     30.1 29.9      
Jun 16 20:54 WSW 9 10 Mostly Cloudy FEW070 SCT120 BKN160 56 48     75%     30.08 29.89   0  
Jun 16 20:25   10 Mostly Cloudy FEW070 BKN120 BKN170 58 47     67%     30.07        
Jun 16 19:54   10 Mostly Cloudy SCT070 BKN090 BKN110 58 47     67%     30.09 29.9 0    
Jun 16 19:23   10 Light Rain FEW030 SCT070 BKN090 58 47     67%     30.09   0    
Jun 16 19:01   10 Light Rain FEW025 SCT070 BKN090 62 45     53%     30.1   0    
Jun 16 18:54 SSW 13 10 Light Rain FEW025 SCT070 BKN090 63 45     52%     30.1 29.92 0    
Jun 16 18:30   10 Light Rain FEW020 BKN070 BKN100 63 45     52%     30.1   0    
Jun 16 18:03 ENE 8 10 Rain FEW020 SCT050 BKN075 66 44     45%     30.09   0    
Jun 16 17:54 Calm 10 Light Rain FEW020 SCT050 BKN075 63 47     56%     30.09 29.95 0   0
Jun 16 17:28 WNW 7 10 Light Rain FEW050 BKN080 BKN220 59 48     67%     30.09   0    
Jun 16 16:54   10 Thunderstorms and Rain FEW050 BKN080 BKN220 61 52     72%     30.08 29.94 0    
Jun 16 15:54 E 11 10 Thunderstorms FEW070 BKN120 BKN220 72 42     34%   70 30.06 29.87      
Jun 16 15:35 SE 11 10 Thunderstorms FEW070 BKN120 BKN220 73 43     34%   72 30.06        
Jun 16 15:19 SSE 18 10 Mostly Cloudy SCT070 BKN120 BKN220 73 43     34%   72 30.06        
Jun 16 14:54   10 Partly Cloudy FEW090 SCT140 SCT250 76 44     32%   75 30.05 29.83      
Jun 16 13:54 S 18 10 Partly Cloudy FEW090 SCT140 SCT250 75 45     34%   74 30.07 29.85      
Jun 16 12:54 SSE 16 10 Partly Cloudy FEW070 SCT140 SCT250 70 45     41%     30.09 29.9      
Jun 16 11:54   10 Partly Cloudy FEW065 SCT250 71 46     41%   70 30.12 29.91      
Jun 16 10:54 SSE 16 10 Mostly Cloudy FEW080 FEW220 BKN250 70 45     41%     30.12 29.92      
Jun 16 09:54 SSE 15 10 Mostly Cloudy FEW090 FEW220 BKN250 69 46     44%     30.12 29.92      
Jun 16 08:54 SE 7 10 Mostly Cloudy FEW220 BKN250 65 46     50%     30.12 29.93      
Jun 16 07:54 Calm 10 Mostly Cloudy FEW220 BKN250 62 44     52%     30.13 29.93      
Jun 16 06:54 NNE 7 10 Mostly Cloudy FEW100 FEW180 BKN250 54 47     77%     30.14 29.96      
Jun 16 05:54 N 7 10 Mostly Cloudy FEW180 BKN250 49 44     83% 46   30.13 30      
Jun 16 04:54 NNW 7 10 Mostly Cloudy FEW220 BKN250 49 45     86% 46   30.13 30.01      
Jun 16 03:54 N 6 10 Mostly Cloudy FEW100 FEW220 BKN250 48 45     89% 45   30.12 30.01      
Jun 16 02:54 SW 3 10 Mostly Cloudy FEW220 BKN250 50 45     83%     30.13 30      
Jun 16 01:54 NE 3 10 Mostly Cloudy FEW200 BKN250 52 43     71%     30.12 29.95      
Jun 16 00:54 NNW 6 10 Mostly Cloudy FEW170 BKN250 51 47     86%     30.11 29.96      
May 15 12:54 S 18 10 Partly Cloudy SCT065 SCT200 70 41     35%     30.17 29.98      
May 13 23:05 N 9 10 Mostly Cloudy BKN019 BKN050 55 48     77%     30.08        
May 13 04:54 SE 11 5 Fog/Mist BKN004 OVC006 53 51     93%     30.04 29.83      
May 13 03:54 SE 11 5 Fog/Mist OVC005 54 51     90%     30.03 29.82      
May 12 13:54 SE 11 10 Mostly Cloudy FEW080 SCT200 BKN250 69 47     45%     29.98 29.78      
May 12 04:54 ENE 5 7 Cloudy FEW009 BKN011 OVC017 53 49     86%     29.96 29.73      
May 11 14:54 SSE 18 10 Mostly Cloudy SCT110 SCT200 BKN250 77 37     24%   76 29.77 29.53      
May 11 06:54 NW 10 10 Partly Cloudy FEW120 FEW200 SCT250 53 44     71%     29.88 29.63      
Jun 12 02:54 NNE 8 10 Clear CLR 58 54     87%     29.97 29.71      
Jun 11 23:54 Calm 10 Clear CLR 66 52     61%     29.99 29.72      
Jun 11 21:54 NNE 9 10 Mostly Clear FEW070 66 50     56%     29.98 29.69      
Jun 11 20:54 NE 8 10 Mostly Clear FEW070 70 50     49%     29.95 29.68      
Jun 11 08:54 W 5 10 Mostly Cloudy SCT200 BKN250 72 34     25%   70 29.9 29.59      
Jun 11 02:54 ESE 7 10 Mostly Cloudy FEW220 BKN250 70 17     13%     29.8 29.46      
Jun 10 22:54   10 Mostly Clear FEW240 80 21     11%   78 29.79 29.43      
Jun 10 20:54   10 Partly Cloudy FEW100 FEW160 SCT240 81        %     29.76 29.41      
Jun 10 18:54   10 Mostly Cloudy FEW100 SCT160 BKN240 88 32     14%   84 29.75 29.41      
Jun 10 10:02   10 Partly Cloudy FEW210 SCT250 86 27     12%   82 29.86        
Jun 10 08:54 Calm 10 Mostly Clear FEW220 FEW250 83 27     13%   80 29.86 29.53      
Jun 09 23:54 E 8 10 Clear CLR 63 45     52%     29.85 29.56      
Jun 09 21:54 SE 13 10 Clear CLR 70 43     38%     29.86 29.56      
Jun 09 20:54 SE 8 10 Clear CLR 76 39     26%   74 29.86 29.57      
Jun 09 14:54 E 9 10 Clear   88 24     10%   84 29.92 29.65      
Jun 08 04:54 SSW 5 10 Mostly Clear FEW150 FEW220 54 47     77%     30.22        
Jun 07 09:54 SE 14 10 Clear   72 50     46%   71 30.27 30.04